Location: Fours
(44.3167°N, 6.7000°E)
Time: 09:30:57
(UTC+00:00)

NOSS 3-2 (C) - Pass Details

Date: 30 November 2020
Orbit: 789 x 1424 km, 63.4° (Epoch: 09 January)

Event Time Altitude Azimuth Distance (km) Brightness Sun altitude
Rises 18:51:45 0° 214° (SW) 3,320 6.7 -30.8°
Reaches altitude 10° 18:54:04 10° 214° (SW) 2,432 5.9 -31.3°
Enters shadow 18:57:48 46° 212° (SSW) 1,160 4.0 -31.9°
